{"data":{"norad_id":37152,"intl_designator":"2010-043A","name":"COSMOS 2467","alt_names":[],"object_type":"PAYLOAD","status":"ACTIVE","operator":null,"country":"CIS","launch_date":"2010-09-08","launch_site_code":"PLMSC","launch_vehicle":null,"mission":null,"orbit_class":"UNKNOWN","rcs_meters":1.654,"size_class":null,"mass_kg":null,"dimensions":null,"purposes":[],"wikipedia_slug":null,"has_3d_model":false,"image_url":null,"decayed_at":null,"tle_current":{"epoch":"2026-09-20T01:45:20.185056Z","epoch_age_seconds":62556,"freshness":"FRESH","line1":"1 37152U 10043A   26263.07315029  .00000023  00000+0  94694-4 0  9992","line2":"2 37152  82.4627   5.6538 0000163 128.9327 347.7182 12.42989881727299","mean_motion":12.42989881,"eccentricity":1.63e-5,"inclination_deg":82.4627,"raan_deg":5.6538,"arg_perigee_deg":128.9327,"mean_anomaly_deg":347.7182,"bstar":9.4694e-5,"rev_number":72729,"period_min":115.84969612476,"perigee_km":1493.825807271,"apogee_km":1494.0824374416,"semimajor_km":7872.0911223563,"source":"CELESTRAK","updated_at":"2026-09-20T09:00:13.756295Z"}}}